Current weather by "City, St" or "zip code"  
 

Current Conditions: Weatherford, Thomas P Stafford Airport, OK

Fair


66.0 F

Last Updated on Oct 21 2021, 11:55 am CDT
Humidity: 39%
Wind Speed: NE 5.8 mph
Barometer 30.27 in
Dewpoint: 39.9 F
Visibility: 10.00 mi
Precip: --
Heat Index: NA
Wind Chill: NA
Current conditions at:

Weatherford, Thomas P Stafford Airport, OK (KOJA)

Lat: 35.54472 Lon: 98.66833

Local Radar Image active severe weather and emergency alerts image image weather storm and storm spotter reports image weather observation monitoring service image
Local
Radar
Active
Alerts
Storm Reports Obs
Monitoring

Sign-up For Email & Text Message Weather Alert Notification Services



Advertise Here

Observation History for Weatherford, Thomas P Stafford Airport, OK


Time Wind
(mph)
Vis
(mi)
Weather Precip (in) Temperature (F) Relative
Humidity
Wind
Chill
(F)
Heat
Index
(F)
Pressure
Air Dwpt altimeter
(in)
sea level
(mb)
Rmks
11:55 am CDT NE 5.8 10.00 Fair -- 66.0 39.9 39% NA NA 30.27 M
10:55 am CDT NE 5.8 10.00 Fair -- 62.0 40.8 46% 62 NA 30.27 M
9:55 am CDT N 5.8 10.00 Fair -- 54.0 44.6 71% 53 NA 30.27 M
8:55 am CDT N 4.6 10.00 Fair -- 47.0 42.1 83% 45 NA 30.26 M
7:55 am CDT W 4.6 10.00 Fair -- 44.0 38.8 83% 41 NA 30.25 M
6:55 am CDT N 0.0 10.00 Fair -- 42.0 38.1 87% NA NA 30.24 M
5:55 am CDT N 0.0 10.00 Fair -- 44.0 38.5 82% NA NA 30.21 M
4:55 am CDT W 3.5 10.00 Fair -- 44.0 39.9 87% NA NA 30.20 M
3:55 am CDT N 0.0 10.00 Fair -- 43.0 39.2 86% NA NA 30.20 M
2:55 am CDT W 4.6 10.00 Fair -- 48.0 40.3 74% 46 NA 30.20 M
1:55 am CDT N 0.0 10.00 Fair -- 50.0 40.8 70% NA NA 30.18 M
12:55 am CDT N 4.6 10.00 Fair -- 47.0 40.6 79% 45 NA 30.20 M
11:55 pm CDT NW 3.5 10.00 Fair -- 48.0 41.4 77% NA NA 30.20 M
10:55 pm CDT N 0.0 10.00 Fair -- 51.0 41.4 70% NA NA 30.19 M
9:55 pm CDT W 3.5 10.00 Fair -- 54.0 43.7 68% NA NA 30.18 M
8:55 pm CDT N 0.0 10.00 Fair -- 58.0 42.6 56% NA NA 30.16 M
7:55 pm CDT E 3.5 10.00 Fair -- 59.0 42.1 53% NA NA 30.14 M
6:55 pm CDT NE 5.8 10.00 Fair -- 64.0 40.5 42% NA NA 30.12 M
5:55 pm CDT NE 6.9 10.00 Fair -- 70.0 40.3 34% NA NA 30.11 M
4:55 pm CDT N 10.4 10.00 Fair -- 72.0 39.9 31% NA NA 30.11 M
3:55 pm CDT N 9.2 10.00 Fair -- 72.0 38.5 29% NA NA 30.10 M
2:55 pm CDT NE 9.2 10.00 Fair -- 72.0 40.3 32% NA NA 30.12 M
1:55 pm CDT N 11.5 10.00 Fair -- 71.0 39.7 33% NA NA 30.12 M
12:55 pm CDT NE 18.4 G 21.9 10.00 Fair -- 70.0 40.1 34% NA NA 30.14 M

Regional Weather Observation


Weatherford, Thomas P Stafford Airport, OK (KOJA)

Fair
66.0 F

Watonga, Watonga Airport, OK (KJWG)

Fair
63.0 F

Clinton, Clinton-Sherman Airport, OK (KCSM)

A Few Clouds
66.0 F

Elk City Regional Business Airport, OK (KELK)

Overcast
65.0 F

El Reno, El Reno Regional Airport, OK (KRQO)

Fair
64.0 F

Woodward, West Woodward Airport, OK (KWWR)

Partly Cloudy
64.0 F

Advertise Here


Advertise Here